TimeEST,TemperatureF,Dew PointF,Humidity,Sea Level PressureIn,VisibilityMPH,Wind Direction,Wind SpeedMPH,Gust SpeedMPH,PrecipitationIn,Events,Conditions,WindDirDegrees,DateUTC
12:00 AM,64.4,55.4,73,30.11,6.2,Calm,Calm,-,N/A,,Scattered Clouds,0,2014-01-21 05:00:00
1:00 AM,62.6,55.4,77,30.09,6.2,Calm,Calm,-,N/A,,Scattered Clouds,0,2014-01-21 06:00:00
2:00 AM,62.6,57.2,82,30.08,-9999.0,Calm,Calm,-,N/A,,Partly Cloudy,0,2014-01-21 07:00:00
3:00 AM,62.6,57.2,82,30.06,6.2,North,-9999.0,-,N/A,,Scattered Clouds,0,2014-01-21 08:00:00
4:00 AM,60.8,57.2,88,30.06,6.2,Calm,Calm,-,N/A,,Partly Cloudy,0,2014-01-21 09:00:00
5:00 AM,59.0,53.6,82,30.04,6.2,Calm,Calm,-,N/A,,Partly Cloudy,0,2014-01-21 10:00:00
6:00 AM,60.8,55.4,82,30.05,6.2,Calm,Calm,-,N/A,,Partly Cloudy,0,2014-01-21 11:00:00
7:00 AM,57.2,57.2,100,30.06,6.2,Calm,Calm,-,N/A,,Partly Cloudy,0,2014-01-21 12:00:00
8:00 AM,62.6,57.2,82,30.06,6.2,Calm,Calm,-,N/A,,Partly Cloudy,0,2014-01-21 13:00:00
9:00 AM,69.8,59.0,68,30.05,6.2,Calm,Calm,-,N/A,,Partly Cloudy,0,2014-01-21 14:00:00
10:00 AM,74,59,50,30.06,9,WSW,4.6,,,,Scattered Clouds,240,2014-01-21 15:00:00
10:00 AM,73.4,59.0,61,30.06,6.2,WSW,4.6,-,N/A,,Partly Cloudy,240,2014-01-21 15:00:00
11:00 AM,73.4,53.6,50,30.04,6.2,WSW,9.2,-,N/A,,Partly Cloudy,240,2014-01-21 16:00:00
12:00 PM,73.4,53.6,50,30.01,6.2,WSW,9.2,-,N/A,,Partly Cloudy,240,2014-01-21 17:00:00
1:00 PM,75,62,55,29.98,9,WSW,10.4,,,,Partly Cloudy,240,2014-01-21 18:00:00
1:00 PM,75.2,62.6,65,29.97,6.2,WSW,10.4,-,N/A,,Scattered Clouds,240,2014-01-21 18:00:00
2:00 PM,73.4,55.4,53,29.95,6.2,WSW,9.2,-,N/A,,Scattered Clouds,240,2014-01-21 19:00:00
3:00 PM,75.2,55.4,50,29.94,6.2,South,9.2,-,N/A,,Scattered Clouds,180,2014-01-21 20:00:00
4:00 PM,77,62,49,29.94,9,SW,11.5,,,,Partly Cloudy,220,2014-01-21 21:00:00
4:00 PM,77.0,60.8,57,29.93,6.2,SW,11.5,-,N/A,,Scattered Clouds,220,2014-01-21 21:00:00
5:00 PM,75.2,57.2,53,29.94,6.2,SSW,9.2,-,N/A,,Scattered Clouds,210,2014-01-21 22:00:00
6:00 PM,73.4,55.4,53,29.94,6.2,SSW,9.2,-,N/A,,Scattered Clouds,210,2014-01-21 23:00:00
7:00 PM,71,60,59,29.94,9,SSW,9.2,,,,Partly Cloudy,210,2014-01-22 00:00:00
7:00 PM,71.6,59.0,64,29.94,6.2,SSW,9.2,-,N/A,,Scattered Clouds,210,2014-01-22 00:00:00
8:00 PM,69.8,57.2,64,29.96,6.2,SW,13.8,-,N/A,,Scattered Clouds,220,2014-01-22 01:00:00
9:00 PM,69.8,55.4,60,29.96,6.2,SSW,13.8,-,N/A,,Mostly Cloudy,210,2014-01-22 02:00:00
10:00 PM,71,61,63,29.96,8,WSW,13.8,,,,Mostly Cloudy,250,2014-01-22 03:00:00
10:00 PM,71.6,60.8,69,29.96,6.2,WSW,13.8,-,N/A,,Mostly Cloudy,250,2014-01-22 03:00:00
11:00 PM,66.2,62.6,88,29.95,6.2,WSW,11.5,-,N/A,,Mostly Cloudy,240,2014-01-22 04:00:00